Weather History for Racine, WI

Change the Weather History Date:

Tuesday, March 5, 2013

  Actual Average Record
Temperature  
Mean Temperature 30 °F -  
Max Temperature 32 °F 38 °F 62 °F (2009)
Min Temperature 28 °F 24 °F 0 °F (1960)
Degree Days  
Heating Degree Days 35    
Moisture  
Dew Point 27 °F    
Average Humidity 89    
Maximum Humidity 100    
Minimum Humidity 73    
Precipitation  
Precipitation 0.10 in - - ()
Sea Level Pressure  
Sea Level Pressure 29.94 in    
Wind  
Wind Speed 15 mph (NE)    
Max Wind Speed 24 mph    
Max Gust Speed 37 mph    
Visibility 4 miles    
Events Fog , Snow    
Averages and records for this station are not official NWS values.
T = Trace of Precipitation, MM = Missing Value Source: NWS Daily Summary

Daily Weather History Graph

Daily Weather History Graph

Search for Another Location

Airport:

Trip Planner

Search our weather history database for the weather conditions in past years. The results will help you decide how hot, cold, wet, or windy it might be!

Date:

Astronomy

Mar. 05, 2013 Rise Set
Actual Time 6:19 AM CST 5:46 PM CST
Civil Twilight 5:51 AM CST 6:14 PM CST
Nautical Twilight 5:19 AM CST 6:47 PM CST
Astronomical Twilight 4:46 AM CST 7:19 PM CST
Moon 1:38 AM CST (3/5) 11:18 AM CST (3/5)
Length of Visible Light 12h 22m
Length of Day
11h 26m
Last Quarter, 40% of the Moon is Illuminated
Mar 5
Last Quarter
Mar 11
New
Mar 19
First Quarter
Mar 27
Full
Apr 2
Last Quarter

Hourly Weather History & Observations

Time (CST) Temp. Windchill Dew Point Humidity Pressure Visibility Wind Dir Wind Speed Gust Speed Precip Events Conditions
1:53 AM 32.0 °F 23.0 °F 24.1 °F 73% 30.04 in 10.0 mi East 11.5 mph - N/A   Overcast
3:53 AM 32.0 °F 23.6 °F 25.0 °F 75% 30.00 in 10.0 mi East 10.4 mph - N/A   Overcast
4:53 AM 32.0 °F 23.0 °F 25.0 °F 75% 29.99 in 10.0 mi East 11.5 mph - N/A   Overcast
7:32 AM 32.0 °F 21.2 °F 24.8 °F 75% 29.93 in 10.0 mi East 16.1 mph - N/A   Overcast
7:53 AM 32.0 °F 22.5 °F 25.0 °F 75% 29.96 in 8.0 mi East 12.7 mph - 0.00 in   Overcast
8:07 AM 32.0 °F 21.6 °F 24.8 °F 75% 29.94 in 3.0 mi East 15.0 mph - 0.00 in Snow Light Snow
8:14 AM 30.2 °F 18.9 °F 24.8 °F 80% 29.94 in 1.8 mi East 16.1 mph - 0.00 in Snow Light Snow
8:53 AM 30.0 °F 19.5 °F 26.1 °F 85% 29.97 in 1.0 mi East 13.8 mph - 0.00 in Snow Light Snow
9:07 AM 30.2 °F 20.2 °F 26.6 °F 86% 29.95 in 0.2 mi East 12.7 mph - 0.00 in Fog , Snow Snow
9:20 AM 28.4 °F 18.5 °F 28.4 °F 100% 29.95 in 0.5 mi East 11.5 mph - 0.00 in Fog , Snow Snow
9:53 AM 28.9 °F 19.8 °F 27.0 °F 92% 29.96 in 0.2 mi East 10.4 mph - 0.02 in Fog , Snow Snow
10:53 AM 28.9 °F 17.7 °F 27.0 °F 92% 29.94 in 0.5 mi East 15.0 mph - 0.01 in Fog , Snow Light Snow
11:53 AM 28.9 °F 17.3 °F 27.0 °F 92% 29.92 in 0.5 mi ENE 16.1 mph 23.0 mph 0.01 in Fog , Snow Snow
12:53 PM 28.9 °F 18.2 °F 27.0 °F 92% 29.90 in 0.2 mi ENE 13.8 mph 23.0 mph 0.00 in Fog , Snow Snow
1:31 PM 28.4 °F 17.0 °F 26.6 °F 93% 29.87 in 0.2 mi ENE 15.0 mph - 0.01 in Fog , Snow Snow
1:53 PM 28.9 °F 17.7 °F 27.0 °F 92% 29.90 in 0.2 mi ENE 15.0 mph - 0.02 in Fog , Snow Snow
2:06 PM 28.4 °F 18.0 °F 26.6 °F 93% 29.88 in 0.2 mi NE 12.7 mph - 0.01 in Fog , Snow Snow
2:53 PM 28.0 °F 16.1 °F 26.1 °F 92% 29.91 in 0.5 mi NE 16.1 mph - 0.02 in Fog , Snow Snow
3:44 PM 28.4 °F 16.2 °F 26.6 °F 93% 29.88 in 0.5 mi NE 17.3 mph 27.6 mph 0.01 in Fog , Snow Snow
3:53 PM 28.0 °F 15.7 °F 26.1 °F 92% 29.91 in 0.8 mi NE 17.3 mph 24.2 mph 0.01 in Snow Light Snow
4:12 PM 28.4 °F 16.2 °F 26.6 °F 93% 29.88 in 1.0 mi NNE 17.3 mph 25.3 mph 0.00 in Snow Light Snow
4:20 PM 28.4 °F 16.2 °F 26.6 °F 93% 29.88 in 1.0 mi NNE 17.3 mph - 0.00 in Snow Light Snow
4:28 PM 28.4 °F 16.2 °F 26.6 °F 93% 29.88 in 0.8 mi NNE 17.3 mph - 0.00 in Snow Light Snow
4:53 PM 28.9 °F 18.2 °F 27.0 °F 92% 29.91 in 0.8 mi NNE 13.8 mph - 0.00 in Snow Light Snow
5:02 PM 28.4 °F 16.2 °F 26.6 °F 93% 29.89 in 1.0 mi NE 17.3 mph 21.9 mph 0.00 in Snow Light Snow
5:20 PM 28.4 °F 15.8 °F 26.6 °F 93% 29.90 in 0.8 mi NNE 18.4 mph 25.3 mph 0.00 in Snow Light Snow
5:34 PM 28.4 °F 15.4 °F 26.6 °F 93% 29.90 in 0.8 mi NNE 19.6 mph 26.5 mph 0.00 in Snow Light Snow
5:48 PM 30.2 °F 17.8 °F 28.4 °F 93% 29.91 in 1.0 mi NNE 19.6 mph 25.3 mph 0.00 in Snow Light Snow
5:53 PM 30.0 °F 17.9 °F 28.0 °F 92% 29.94 in 1.2 mi NNE 18.4 mph - 0.01 in Snow Light Snow
6:00 PM 30.2 °F 17.4 °F 28.4 °F 93% 29.91 in 1.2 mi NNE 20.7 mph 27.6 mph 0.00 in Snow Light Snow
6:10 PM 30.2 °F 18.9 °F 28.4 °F 93% 29.92 in 1.0 mi NNE 16.1 mph 28.8 mph 0.00 in Snow Light Snow
6:53 PM 30.9 °F 18.7 °F 28.9 °F 92% 29.95 in 1.5 mi NNE 19.6 mph 29.9 mph 0.00 in Snow Light Snow
7:08 PM 30.2 °F 17.4 °F 28.4 °F 93% 29.93 in 2.5 mi NNE 20.7 mph 29.9 mph 0.00 in Snow Light Snow
7:27 PM 30.2 °F 16.8 °F 28.4 °F 93% 29.93 in 1.5 mi North 23.0 mph 36.8 mph 0.00 in Snow Light Snow
7:44 PM 30.2 °F 17.4 °F 28.4 °F 93% 29.94 in 3.0 mi North 20.7 mph 28.8 mph 0.00 in Snow Light Snow
7:53 PM 30.0 °F 18.3 °F 28.0 °F 92% 29.96 in 5.0 mi North 17.3 mph 27.6 mph 0.00 in Snow Light Snow
8:07 PM 30.2 °F 16.5 °F 26.6 °F 86% 29.94 in 7.0 mi North 24.2 mph 31.1 mph 0.00 in Snow Light Snow
8:53 PM 30.0 °F 17.2 °F 26.1 °F 85% 29.98 in 10.0 mi North 20.7 mph 29.9 mph 0.00 in   Overcast
9:53 PM 30.9 °F 19.4 °F 27.0 °F 85% 30.00 in 10.0 mi North 17.3 mph 24.2 mph 0.00 in   Overcast
10:15 PM 32.0 °F 21.6 °F 28.4 °F 87% 29.98 in 10.0 mi NNE 15.0 mph 21.9 mph N/A   Overcast
10:53 PM 32.0 °F 21.6 °F 28.9 °F 88% 30.01 in 10.0 mi NNE 15.0 mph 25.3 mph N/A   Overcast
11:28 PM 30.2 °F 18.5 °F 26.6 °F 86% 30.00 in 10.0 mi North 17.3 mph 31.1 mph 0.00 in   Overcast
11:53 PM 30.0 °F 17.5 °F 26.1 °F 85% 30.03 in 10.0 mi North 19.6 mph 31.1 mph 0.00 in   Overcast